| time (UTC) | temp C | wind direction | speed KPH | gust KPH | rain 1hr cm | rain 24hr cm | rain mn cm | humidity % | barometer mb |
| 20260506192955 | 8 | 156 | 1.6 | 1.6 | 0.18 | 0.89 | 0.89 | 99 | 1007.1 |
| 20260506192453 | 8 | 158 | 0.0 | 1.6 | 0.18 | 0.89 | 0.89 | 99 | 1007.4 |
| 20260506191944 | 8 | 154 | 0.0 | 0.0 | 0.00 | 0.86 | 0.86 | 99 | 1007.3 |
| 20260506191440 | 8 | 155 | 0.0 | 1.6 | 0.00 | 0.86 | 0.86 | 99 | 1007.4 |
| 20260506190936 | 8 | 159 | 1.6 | 1.6 | 0.00 | 0.86 | 0.86 | 99 | 1007.2 |
| 20260506190433 | 8 | 177 | 0.0 | 0.0 | 0.00 | 0.86 | 0.86 | 99 | 1007.2 |
| 20260506185930 | 8 | 351 | 3.2 | 4.8 | 0.00 | 0.86 | 0.86 | 99 | 1007.0 |
| 20260506185428 | 8 | 289 | 3.2 | 3.2 | 0.00 | 0.86 | 0.86 | 99 | 1007.1 |
| 20260506184924 | 8 | 161 | 0.0 | 0.0 | 0.00 | 0.86 | 0.86 | 99 | 1007.1 |
| 20260506184421 | 8 | 85 | 1.6 | 1.6 | 0.00 | 0.86 | 0.86 | 99 | 1006.9 |
| 20260506183914 | 8 | 200 | 1.6 | 3.2 | 0.00 | 0.86 | 0.86 | 99 | 1006.9 |
| 20260506183409 | 8 | 154 | 0.0 | 0.0 | 0.13 | 0.86 | 0.86 | 99 | 1007.0 |
| 20260506182906 | 8 | 168 | 0.0 | 0.0 | 0.13 | 0.86 | 0.86 | 99 | 1006.8 |
| 20260506182403 | 8 | 25 | 1.6 | 3.2 | 0.00 | 0.84 | 0.84 | 99 | 1006.8 |
| 20260506181900 | 8 | 247 | 3.2 | 4.8 | 0.00 | 0.84 | 0.84 | 99 | 1006.8 |
| 20260506181358 | 8 | 177 | 0.0 | 0.0 | 0.18 | 0.84 | 0.84 | 99 | 1006.6 |
| 20260506180855 | 8 | 151 | 0.0 | 0.0 | 0.18 | 0.84 | 0.84 | 99 | 1006.5 |
| 20260506180351 | 8 | 140 | 0.0 | 1.6 | 0.00 | 0.81 | 0.81 | 99 | 1006.6 |
| 20260506175848 | 8 | 176 | 1.6 | 1.6 | 0.00 | 0.81 | 0.81 | 99 | 1006.7 |
| 20260506175345 | 8 | 124 | 0.0 | 1.6 | 0.00 | 0.81 | 0.81 | 99 | 1006.8 |
| 20260506174842 | 8 | 191 | 0.0 | 1.6 | 0.00 | 0.81 | 0.81 | 99 | 1006.5 |
| 20260506174339 | 8 | 66 | 1.6 | 1.6 | 0.00 | 0.81 | 0.81 | 99 | 1006.6 |
| 20260506173836 | 8 | 169 | 0.0 | 0.0 | 0.00 | 0.81 | 0.81 | 99 | 1006.7 |
| 20260506173332 | 8 | 148 | 0.0 | 0.0 | 0.00 | 0.81 | 0.81 | 99 | 1006.7 |
| 20260506172825 | 7 | 160 | 0.0 | 0.0 | 0.00 | 0.81 | 0.81 | 99 | 1006.4 |
| 20260506172321 | 7 | 169 | 0.0 | 0.0 | 0.00 | 0.81 | 0.81 | 99 | 1006.6 |
| 20260506171819 | 7 | 178 | 1.6 | 1.6 | 0.00 | 0.81 | 0.81 | 99 | 1006.8 |
| 20260506171315 | 7 | 158 | 1.6 | 1.6 | 0.00 | 0.81 | 0.81 | 99 | 1006.8 |
| 20260506170813 | 7 | 161 | 0.0 | 0.0 | 0.00 | 0.81 | 0.81 | 99 | 1006.6 |
| 20260506170309 | 7 | 204 | 1.6 | 3.2 | 0.00 | 0.81 | 0.81 | 99 | 1006.6 |
| 20260506165808 | 7 | 176 | 0.0 | 1.6 | 0.00 | 0.81 | 0.81 | 99 | 1006.8 |
| 20260506165306 | 7 | 184 | 1.6 | 1.6 | 0.00 | 0.81 | 0.81 | 99 | 1006.8 |
| 20260506164801 | 7 | 180 | 0.0 | 1.6 | 0.13 | 0.81 | 0.81 | 99 | 1006.9 |
| 20260506164258 | 7 | 162 | 0.0 | 0.0 | 0.13 | 0.81 | 0.81 | 99 | 1007.0 |
| 20260506163749 | 7 | 165 | 0.0 | 0.0 | 0.00 | 0.79 | 0.79 | 99 | 1006.9 |
| 20260506163244 | 7 | 134 | 1.6 | 1.6 | 0.00 | 0.79 | 0.79 | 99 | 1007.0 |
| 20260506162741 | 7 | 173 | 0.0 | 0.0 | 0.00 | 0.79 | 0.79 | 99 | 1006.8 |
| 20260506162238 | 7 | 143 | 0.0 | 1.6 | 0.00 | 0.79 | 0.79 | 99 | 1007.1 |
| 20260506161736 | 7 | 167 | 0.0 | 0.0 | 0.00 | 0.79 | 0.79 | 99 | 1007.0 |
| 20260506161233 | 7 | 139 | 0.0 | 0.0 | 0.00 | 0.79 | 0.79 | 99 | 1006.8 |
| 20260506160730 | 7 | 158 | 0.0 | 0.0 | 0.00 | 0.79 | 0.79 | 99 | 1006.8 |
| 20260506160226 | 7 | 134 | 1.6 | 3.2 | 0.00 | 0.79 | 0.79 | 99 | 1007.0 |
| 20260506155725 | 7 | 168 | 0.0 | 1.6 | 0.00 | 0.79 | 0.79 | 99 | 1007.5 |
| 20260506155222 | 7 | 153 | 1.6 | 1.6 | 0.00 | 0.79 | 0.79 | 99 | 1007.2 |
| 20260506153329 | 7 | 168 | 0.0 | 0.0 | 0.00 | 0.79 | 0.79 | 99 | 1007.0 |
| 20260506152826 | 7 | 167 | 0.0 | 0.0 | 0.18 | 0.79 | 0.79 | 99 | 1006.7 |
| 20260506152323 | 7 | 161 | 0.0 | 0.0 | 0.18 | 0.79 | 0.79 | 99 | 1006.6 |
| 20260506151822 | 7 | 145 | 0.0 | 0.0 | 0.00 | 0.76 | 0.76 | 99 | 1006.7 |
| 20260506151318 | 7 | 164 | 0.0 | 0.0 | 0.00 | 0.76 | 0.76 | 99 | 1006.9 |
| 20260506150815 | 7 | 160 | 0.0 | 0.0 | 0.00 | 0.76 | 0.76 | 99 | 1007.0 |
| 20260506150312 | 7 | 161 | 0.0 | 1.6 | 0.00 | 0.76 | 0.76 | 99 | 1007.1 |
| 20260506145809 | 7 | 166 | 0.0 | 0.0 | 0.00 | 0.76 | 0.76 | 99 | 1007.0 |
| 20260506145306 | 7 | 260 | 1.6 | 3.2 | 0.00 | 0.76 | 0.76 | 99 | 1006.9 |
| 20260506144803 | 7 | 94 | 1.6 | 1.6 | 0.18 | 0.76 | 0.76 | 99 | 1007.0 |
| 20260506144259 | 7 | 144 | 0.0 | 0.0 | 0.18 | 0.76 | 0.76 | 99 | 1007.0 |
| 20260506143758 | 7 | 171 | 0.0 | 1.6 | 0.00 | 0.74 | 0.74 | 99 | 1007.0 |
| 20260506143254 | 7 | 155 | 0.0 | 1.6 | 0.13 | 0.74 | 0.74 | 99 | 1006.9 |
| 20260506142753 | 7 | 167 | 1.6 | 3.2 | 0.13 | 0.74 | 0.74 | 99 | 1006.9 |
| 20260506142250 | 7 | 159 | 0.0 | 0.0 | 0.00 | 0.71 | 0.71 | 99 | 1007.0 |
| 20260506141748 | 7 | 146 | 0.0 | 0.0 | 0.18 | 0.71 | 0.71 | 99 | 1006.8 |
| 20260506141246 | 7 | 167 | 0.0 | 0.0 | 0.30 | 0.71 | 0.71 | 99 | 1006.9 |
| 20260506140744 | 7 | 104 | 1.6 | 1.6 | 0.30 | 0.69 | 0.69 | 99 | 1007.0 |
| 20260506140240 | 7 | 115 | 1.6 | 1.6 | 0.30 | 0.66 | 0.66 | 99 | 1007.0 |
| 20260506135737 | 7 | 143 | 0.0 | 0.0 | 0.43 | 0.64 | 0.64 | 99 | 1007.2 |
| 20260506135233 | 7 | 148 | 0.0 | 1.6 | 0.48 | 0.61 | 0.61 | 99 | 1007.2 |
| 20260506134731 | 7 | 186 | 1.6 | 1.6 | 0.43 | 0.58 | 0.58 | 99 | 1007.1 |
| 20260506134227 | 7 | 168 | 1.6 | 1.6 | 0.43 | 0.53 | 0.53 | 99 | 1007.1 |
| 20260506133725 | 7 | 154 | 0.0 | 0.0 | 0.48 | 0.51 | 0.51 | 99 | 1006.9 |
| 20260506133221 | 7 | 166 | 0.0 | 0.0 | 0.36 | 0.46 | 0.46 | 99 | 1007.1 |
| 20260506132718 | 7 | 139 | 0.0 | 1.6 | 0.30 | 0.43 | 0.43 | 99 | 1006.8 |
| 20260506132215 | 7 | 151 | 0.0 | 0.0 | 0.13 | 0.41 | 0.41 | 99 | 1007.0 |
| 20260506131713 | 7 | 155 | 0.0 | 1.6 | 0.18 | 0.38 | 0.38 | 99 | 1006.9 |
| 20260506131208 | 7 | 137 | 0.0 | 1.6 | 0.30 | 0.38 | 0.38 | 99 | 1006.8 |
| 20260506130705 | 7 | 134 | 1.6 | 1.6 | 0.30 | 0.36 | 0.36 | 99 | 1006.8 |
| 20260506130203 | 7 | 163 | 1.6 | 1.6 | 0.18 | 0.33 | 0.33 | 98 | 1006.9 |
| 20260506125701 | 7 | 125 | 0.0 | 1.6 | 0.13 | 0.30 | 0.30 | 99 | 1006.8 |
| 20260506125158 | 7 | 126 | 1.6 | 1.6 | 0.13 | 0.30 | 0.30 | 98 | 1006.7 |
| 20260506124656 | 8 | 160 | 0.0 | 1.6 | 0.18 | 0.28 | 0.28 | 98 | 1006.6 |
| 20260506124154 | 7 | 158 | 0.0 | 0.0 | 0.30 | 0.28 | 0.28 | 99 | 1006.9 |
| 20260506123651 | 8 | 163 | 1.6 | 1.6 | 0.13 | 0.25 | 0.25 | 98 | 1006.8 |
| 20260506123150 | 7 | 152 | 0.0 | 0.0 | 0.18 | 0.23 | 0.23 | 99 | 1006.9 |
| 20260506122646 | 7 | 158 | 0.0 | 0.0 | 0.18 | 0.23 | 0.23 | 99 | 1006.9 |
| 20260506122144 | 7 | 152 | 0.0 | 0.0 | 0.00 | 0.20 | 0.20 | 99 | 1006.9 |
| 20260506121641 | 7 | 175 | 0.0 | 1.6 | 0.00 | 0.20 | 0.20 | 99 | 1006.8 |
| 20260506121137 | 7 | 161 | 0.0 | 0.0 | 0.00 | 0.20 | 0.20 | 99 | 1007.2 |
| 20260506120636 | 7 | 144 | 0.0 | 0.0 | 0.00 | 0.20 | 0.20 | 99 | 1007.0 |
| 20260506120132 | 7 | 161 | 0.0 | 0.0 | 0.00 | 0.20 | 0.20 | 99 | 1007.1 |
| 20260506115631 | 7 | 148 | 0.0 | 0.0 | 0.13 | 0.20 | 0.20 | 99 | 1007.0 |
| 20260506115129 | 7 | 150 | 0.0 | 0.0 | 0.13 | 0.20 | 0.20 | 99 | 1007.4 |
| 20260506114626 | 7 | 146 | 0.0 | 0.0 | 0.00 | 0.18 | 0.18 | 99 | 1007.0 |
| 20260506114124 | 7 | 167 | 0.0 | 0.0 | 0.18 | 0.18 | 0.18 | 99 | 1007.4 |
| 20260506113622 | 7 | 142 | 0.0 | 0.0 | 0.30 | 0.18 | 0.18 | 99 | 1007.5 |
| 20260506113119 | 7 | 152 | 0.0 | 0.0 | 0.13 | 0.15 | 0.15 | 99 | 1007.2 |
| 20260506112615 | 8 | 209 | 3.2 | 3.2 | 0.00 | 0.13 | 0.13 | 99 | 1007.4 |
| 20260506112113 | 7 | 162 | 0.0 | 0.0 | 0.18 | 0.13 | 0.13 | 99 | 1007.3 |
| 20260506111610 | 7 | 157 | 0.0 | 0.0 | 0.18 | 0.13 | 0.13 | 99 | 1007.4 |
| 20260506111108 | 7 | 157 | 0.0 | 0.0 | 0.00 | 0.10 | 0.10 | 99 | 1007.2 |
| 20260506110605 | 7 | 138 | 0.0 | 0.0 | 0.00 | 0.10 | 0.10 | 99 | 1007.0 |
| 20260506105558 | 8 | 148 | 0.0 | 0.0 | 0.18 | 0.10 | 0.10 | 99 | 1007.3 |
| 20260506105056 | 8 | 143 | 0.0 | 0.0 | 0.00 | 0.08 | 0.08 | 99 | 1007.5 |
| 20260506104554 | 8 | 141 | 0.0 | 0.0 | 0.00 | 0.08 | 0.08 | 99 | 1007.6 |
| 20260506104051 | 8 | 162 | 0.0 | 0.0 | 0.00 | 0.08 | 0.08 | 99 | 1008.0 |
| 20260506103548 | 8 | 126 | 0.0 | 0.0 | 0.00 | 0.08 | 0.08 | 99 | 1007.7 |
| 20260506103044 | 8 | 141 | 0.0 | 0.0 | 0.00 | 0.08 | 0.08 | 99 | 1007.7 |
| 20260506102543 | 8 | 167 | 0.0 | 0.0 | 0.00 | 0.08 | 0.08 | 99 | 1007.8 |
| 20260506102040 | 8 | 124 | 1.6 | 3.2 | 0.00 | 0.08 | 0.08 | 99 | 1007.6 |
| 20260506101537 | 8 | 39 | 3.2 | 3.2 | 0.00 | 0.08 | 0.08 | 99 | 1007.7 |
| 20260506101034 | 8 | 171 | 1.6 | 1.6 | 0.13 | 0.08 | 0.08 | 99 | 1007.7 |
| 20260506100532 | 8 | 149 | 0.0 | 0.0 | 0.13 | 0.08 | 0.08 | 99 | 1007.6 |
| 20260506100030 | 8 | 157 | 0.0 | 0.0 | 0.00 | 0.05 | 0.05 | 99 | 1007.2 |
| 20260506095529 | 8 | 160 | 0.0 | 0.0 | 0.00 | 0.05 | 0.05 | 99 | 1007.3 |
| 20260506095024 | 8 | 149 | 0.0 | 0.0 | 0.00 | 0.05 | 0.05 | 99 | 1007.4 |
| 20260506094522 | 8 | 162 | 0.0 | 0.0 | 0.00 | 0.05 | 0.05 | 99 | 1007.4 |
| 20260506094020 | 8 | 201 | 1.6 | 1.6 | 0.00 | 0.05 | 0.05 | 99 | 1007.6 |
| 20260506093518 | 8 | 136 | 1.6 | 1.6 | 0.00 | 0.05 | 0.05 | 99 | 1007.3 |
| 20260506093015 | 8 | 127 | 1.6 | 1.6 | 0.00 | 0.05 | 0.05 | 99 | 1007.6 |
| 20260506092513 | 8 | 134 | 1.6 | 1.6 | 0.00 | 0.05 | 0.05 | 99 | 1007.7 |
| 20260506092009 | 8 | 133 | 1.6 | 1.6 | 0.18 | 0.05 | 0.05 | 99 | 1007.8 |
| 20260506091508 | 8 | 199 | 1.6 | 1.6 | 0.18 | 0.05 | 0.05 | 99 | 1007.8 |
| 20260506091005 | 8 | 171 | 1.6 | 1.6 | 0.00 | 0.03 | 0.03 | 99 | 1007.7 |
| 20260506090503 | 8 | 179 | 1.6 | 1.6 | 0.00 | 0.03 | 0.03 | 99 | 1008.2 |
| 20260506085958 | 9 | 188 | 1.6 | 3.2 | 0.00 | 0.03 | 0.03 | 99 | 1008.0 |
| 20260506085456 | 8 | 161 | 0.0 | 0.0 | 0.00 | 0.03 | 0.03 | 99 | 1007.9 |
| 20260506084952 | 8 | 181 | 1.6 | 1.6 | 0.00 | 0.03 | 0.03 | 99 | 1007.6 |
| 20260506084449 | 8 | 143 | 0.0 | 0.0 | 0.00 | 0.03 | 0.03 | 99 | 1007.6 |
| 20260506083945 | 8 | 166 | 0.0 | 0.0 | 0.00 | 0.03 | 0.03 | 99 | 1007.9 |
| 20260506083442 | 8 | 163 | 0.0 | 1.6 | 0.00 | 0.03 | 0.03 | 99 | 1007.8 |
| 20260506082939 | 8 | 163 | 0.0 | 0.0 | 0.13 | 0.03 | 0.03 | 99 | 1007.7 |
| 20260506082437 | 8 | 172 | 0.0 | 0.0 | 0.13 | 0.03 | 0.03 | 99 | 1007.7 |
| 20260506081932 | 8 | 164 | 0.0 | 0.0 | 0.00 | 0.00 | 0.00 | 99 | 1007.5 |
| 20260506081431 | 8 | 160 | 0.0 | 0.0 | 0.00 | 0.00 | 0.00 | 99 | 1007.6 |
| 20260506080927 | 8 | 161 | 0.0 | 0.0 | 0.00 | 0.00 | 0.00 | 99 | 1007.7 |
| 20260506080424 | 8 | 162 | 0.0 | 0.0 | 0.00 | 0.00 | 0.00 | 99 | 1007.7 |
| 20260506073409 | 8 | 181 | 1.6 | 1.6 | 0.00 | 0.00 | 0.00 | 99 | 1008.0 |
| 20260506072906 | 8 | 135 | 1.6 | 3.2 | 0.00 | 0.00 | 0.00 | 99 | 1007.7 |
| 20260506072403 | 8 | 145 | 0.0 | 0.0 | 0.00 | 0.00 | 0.00 | 99 | 1008.0 |
| 20260506071900 | 9 | 130 | 3.2 | 3.2 | 0.00 | 0.00 | 0.00 | 99 | 1007.9 |
| 20260506071359 | 9 | 156 | 0.0 | 0.0 | 0.00 | 0.00 | 0.00 | 99 | 1008.5 |
| 20260506070855 | 9 | 162 | 1.6 | 3.2 | 0.00 | 0.00 | 0.00 | 99 | 1009.2 |
| 20260506070352 | 8 | 172 | 0.0 | 0.0 | 0.00 | 0.00 | 0.00 | 99 | 1008.4 |
| 20260506062329 | 9 | 150 | 0.0 | 0.0 | 0.00 | 0.00 | 0.00 | 99 | 1008.7 |
| 20260506061825 | 8 | 178 | 1.6 | 1.6 | 0.00 | 0.00 | 0.00 | 99 | 1009.3 |
| 20260506061322 | 9 | 148 | 0.0 | 1.6 | 0.00 | 0.00 | 0.00 | 98 | 1009.1 |
| 20260506060820 | 9 | 172 | 0.0 | 1.6 | 0.00 | 0.00 | 0.00 | 98 | 1009.0 |
| 20260506060318 | 9 | 166 | 0.0 | 0.0 | 0.00 | 0.00 | 0.00 | 98 | 1009.2 |
| 20260506051249 | 9 | 170 | 0.0 | 0.0 | 0.00 | 0.00 | 0.00 | 98 | 1009.6 |
| 20260506050747 | 9 | 170 | 0.0 | 0.0 | 0.00 | 0.00 | 0.00 | 98 | 1009.6 |
| 20260506050245 | 9 | 170 | 0.0 | 0.0 | 0.00 | 0.00 | 0.00 | 97 | 1009.4 |
| 20260506044735 | 9 | 167 | 0.0 | 0.0 | 0.00 | 0.00 | 0.00 | 97 | 1009.7 |
| 20260506044232 | 9 | 171 | 1.6 | 3.2 | 0.00 | 0.00 | 0.00 | 97 | 1009.5 |
| 20260506043730 | 9 | 174 | 1.6 | 1.6 | 0.00 | 0.00 | 0.00 | 97 | 1009.6 |
| 20260506043227 | 10 | 163 | 0.0 | 0.0 | 0.00 | 0.00 | 0.00 | 97 | 1009.6 |
| 20260506042726 | 10 | 130 | 0.0 | 0.0 | 0.00 | 0.00 | 0.00 | 97 | 1009.6 |
| 20260506042224 | 10 | 171 | 1.6 | 1.6 | 0.00 | 0.00 | 0.00 | 97 | 1010.0 |
| 20260506041722 | 10 | 161 | 0.0 | 0.0 | 0.00 | 0.00 | 0.00 | 97 | 1010.0 |
| 20260506041219 | 10 | 160 | 0.0 | 0.0 | 0.00 | 0.00 | 0.00 | 97 | 1009.9 |
| 20260506040716 | 10 | 169 | 1.6 | 1.6 | 0.00 | 0.00 | 0.00 | 97 | 1010.2 |
| 20260506040213 | 10 | 190 | 1.6 | 1.6 | 0.00 | 0.00 | 0.00 | 97 | 1010.2 |
| 20260506035710 | 10 | 170 | 0.0 | 1.6 | 0.00 | 0.46 | 0.46 | 97 | 1010.3 |
| 20260506035207 | 10 | 40 | 3.2 | 3.2 | 0.00 | 0.46 | 0.46 | 97 | 1010.0 |
| 20260506034703 | 10 | 169 | 1.6 | 1.6 | 0.18 | 0.46 | 0.46 | 97 | 1010.1 |
| 20260506034200 | 10 | 243 | 3.2 | 4.8 | 0.18 | 0.46 | 0.46 | 96 | 1010.1 |
| 20260506033653 | 10 | 192 | 1.6 | 1.6 | 0.00 | 0.43 | 0.43 | 96 | 1009.9 |
| 20260506033149 | 10 | 183 | 1.6 | 1.6 | 0.13 | 0.43 | 0.43 | 96 | 1010.1 |
| 20260506032646 | 10 | 203 | 1.6 | 3.2 | 0.13 | 0.43 | 0.43 | 96 | 1009.9 |
| 20260506032143 | 10 | 210 | 1.6 | 3.2 | 0.18 | 0.41 | 0.41 | 96 | 1009.8 |
| 20260506031640 | 10 | 214 | 3.2 | 3.2 | 0.18 | 0.41 | 0.41 | 95 | 1010.2 |
| 20260506031137 | 10 | 143 | 0.0 | 1.6 | 0.00 | 0.38 | 0.38 | 95 | 1009.8 |
| 20260506030636 | 10 | 301 | 3.2 | 3.2 | 0.13 | 0.38 | 0.38 | 95 | 1010.7 |
| 20260506030132 | 10 | 233 | 3.2 | 4.8 | 0.43 | 0.38 | 0.38 | 94 | 1010.0 |
| 20260506025629 | 11 | 214 | 3.2 | 3.2 | 0.30 | 0.36 | 0.36 | 93 | 1009.9 |
| 20260506025125 | 11 | 144 | 0.0 | 0.0 | 0.13 | 0.33 | 0.33 | 92 | 1010.0 |
| 20260506024623 | 11 | 245 | 3.2 | 4.8 | 0.00 | 0.30 | 0.30 | 91 | 1010.1 |
| 20260506024119 | 11 | 207 | 3.2 | 3.2 | 0.00 | 0.30 | 0.30 | 89 | 1009.5 |
| 20260506023615 | 11 | 175 | 1.6 | 1.6 | 0.00 | 0.30 | 0.30 | 89 | 1009.5 |
| 20260506023113 | 11 | 197 | 1.6 | 1.6 | 0.00 | 0.30 | 0.30 | 89 | 1009.5 |
| 20260506022610 | 11 | 181 | 0.0 | 1.6 | 0.00 | 0.30 | 0.30 | 88 | 1009.4 |
| 20260506022107 | 11 | 157 | 0.0 | 0.0 | 0.00 | 0.30 | 0.30 | 87 | 1009.3 |
| 20260506021605 | 11 | 163 | 0.0 | 0.0 | 0.00 | 0.30 | 0.30 | 87 | 1009.6 |
| 20260506021102 | 12 | 222 | 1.6 | 3.2 | 0.00 | 0.30 | 0.30 | 87 | 1009.6 |
| 20260506020559 | 12 | 151 | 0.0 | 0.0 | 0.00 | 0.30 | 0.30 | 87 | 1009.5 |
| 20260506020057 | 12 | 171 | 1.6 | 3.2 | 0.00 | 0.30 | 0.30 | 89 | 1009.4 |
| 20260506015554 | 12 | 155 | 0.0 | 0.0 | 0.00 | 0.30 | 0.30 | 90 | 1009.7 |
| 20260506015051 | 12 | 177 | 0.0 | 1.6 | 0.00 | 0.30 | 0.30 | 90 | 1009.3 |
| 20260506014548 | 12 | 173 | 0.0 | 0.0 | 0.00 | 0.30 | 0.30 | 90 | 1009.3 |
| 20260506014043 | 12 | 187 | 1.6 | 1.6 | 0.00 | 0.30 | 0.30 | 88 | 1009.3 |
| 20260506013542 | 12 | 185 | 1.6 | 1.6 | 0.00 | 0.30 | 0.30 | 88 | 1009.1 |
| 20260506013038 | 12 | 195 | 1.6 | 1.6 | 0.00 | 0.30 | 0.30 | 90 | 1009.0 |
| 20260506012535 | 12 | 164 | 0.0 | 0.0 | 0.00 | 0.30 | 0.30 | 91 | 1008.9 |
| 20260506012032 | 12 | 172 | 1.6 | 1.6 | 0.18 | 0.30 | 0.30 | 91 | 1009.2 |
| 20260506011529 | 12 | 180 | 1.6 | 1.6 | 0.18 | 0.30 | 0.30 | 90 | 1009.4 |
| 20260506011025 | 12 | 214 | 3.2 | 3.2 | 0.00 | 0.28 | 0.28 | 90 | 1009.4 |
| 20260506010525 | 12 | 211 | 1.6 | 3.2 | 0.00 | 0.28 | 0.28 | 90 | 1008.9 |
| 20260506010021 | 12 | 182 | 1.6 | 1.6 | 0.00 | 0.28 | 0.28 | 90 | 1009.1 |
| 20260506005518 | 12 | 176 | 0.0 | 1.6 | 0.00 | 0.28 | 0.28 | 89 | 1009.2 |
| 20260506005014 | 12 | 161 | 1.6 | 1.6 | 0.13 | 0.28 | 0.28 | 90 | 1009.1 |
| 20260506004512 | 12 | 172 | 1.6 | 1.6 | 0.30 | 0.28 | 0.28 | 89 | 1008.7 |
| 20260506004008 | 12 | 168 | 0.0 | 0.0 | 0.36 | 0.25 | 0.25 | 87 | 1008.7 |
| 20260506003504 | 12 | 166 | 0.0 | 0.0 | 0.48 | 0.23 | 0.23 | 86 | 1008.6 |
| 20260506003000 | 13 | 169 | 0.0 | 0.0 | 0.61 | 0.20 | 0.20 | 82 | 1008.6 |
| 20260506002456 | 14 | 174 | 0.0 | 0.0 | 0.30 | 0.15 | 0.15 | 78 | 1008.3 |
| 20260506001952 | 15 | 12 | 3.2 | 3.2 | 0.00 | 0.10 | 0.10 | 70 | 1008.5 |
| 20260506001449 | 15 | 226 | 3.2 | 4.8 | 0.00 | 0.10 | 0.10 | 67 | 1008.4 |
| 20260506000946 | 15 | 13 | 3.2 | 3.2 | 0.00 | 0.10 | 0.10 | 67 | 1007.8 |
| 20260506000445 | 15 | 244 | 6.4 | 6.4 | 0.00 | 0.10 | 0.10 | 67 | 1007.5 |
| 20260505235941 | 15 | 62 | 1.6 | 3.2 | 0.00 | 0.10 | 0.10 | 68 | 1007.5 |
| 20260505235439 | 15 | 274 | 4.8 | 9.7 | 0.00 | 0.10 | 0.10 | 69 | 1007.4 |
| 20260505234935 | 15 | 42 | 3.2 | 4.8 | 0.00 | 0.10 | 0.10 | 71 | 1007.4 |
| 20260505234433 | 15 | 74 | 3.2 | 4.8 | 0.00 | 0.10 | 0.10 | 74 | 1007.5 |
| 20260505233929 | 16 | 96 | 3.2 | 3.2 | 0.00 | 0.10 | 0.10 | 76 | 1006.9 |
| 20260505233427 | 16 | 99 | 1.6 | 3.2 | 0.00 | 0.10 | 0.10 | 78 | 1006.9 |
| 20260505232924 | 16 | 98 | 0.0 | 1.6 | 0.00 | 0.10 | 0.10 | 80 | 1006.8 |
| 20260505232422 | 16 | 48 | 6.4 | 9.7 | 0.00 | 0.10 | 0.10 | 80 | 1006.7 |
| 20260505231919 | 16 | 358 | 1.6 | 3.2 | 0.00 | 0.10 | 0.10 | 79 | 1006.6 |
| 20260505231416 | 16 | 72 | 3.2 | 3.2 | 0.00 | 0.10 | 0.10 | 79 | 1006.6 |
| 20260505230914 | 16 | 149 | 0.0 | 1.6 | 0.00 | 0.10 | 0.10 | 79 | 1006.4 |
| 20260505230412 | 17 | 120 | 3.2 | 3.2 | 0.00 | 0.10 | 0.10 | 80 | 1006.1 |
| 20260505225908 | 17 | 64 | 3.2 | 3.2 | 0.00 | 0.10 | 0.10 | 81 | 1005.9 |
| 20260505225406 | 18 | 222 | 1.6 | 3.2 | 0.00 | 0.10 | 0.10 | 78 | 1005.8 |
| 20260505224906 | 18 | 216 | 9.7 | 11.3 | 0.00 | 0.10 | 0.10 | 77 | 1006.0 |
| 20260505224403 | 18 | 223 | 6.4 | 9.7 | 0.00 | 0.10 | 0.10 | 75 | 1006.0 |
| 20260505223900 | 19 | 206 | 3.2 | 3.2 | 0.00 | 0.10 | 0.10 | 74 | 1005.6 |
| 20260505223357 | 19 | 205 | 3.2 | 4.8 | 0.00 | 0.10 | 0.10 | 72 | 1005.6 |
| 20260505222853 | 20 | 223 | 1.6 | 1.6 | 0.00 | 0.10 | 0.10 | 73 | 1005.3 |
| 20260505222349 | 20 | 165 | 1.6 | 1.6 | 0.00 | 0.10 | 0.10 | 72 | 1005.2 |
| 20260505221846 | 20 | 173 | 1.6 | 1.6 | 0.00 | 0.10 | 0.10 | 73 | 1005.3 |
| 20260505221343 | 20 | 195 | 1.6 | 1.6 | 0.00 | 0.10 | 0.10 | 73 | 1005.0 |
| 20260505220840 | 20 | 188 | 0.0 | 1.6 | 0.00 | 0.10 | 0.10 | 73 | 1005.3 |
| 20260505220337 | 19 | 229 | 3.2 | 3.2 | 0.00 | 0.10 | 0.10 | 75 | 1005.2 |
| 20260505215835 | 19 | 164 | 0.0 | 0.0 | 0.00 | 0.10 | 0.10 | 77 | 1005.2 |
| 20260505215333 | 19 | 172 | 0.0 | 0.0 | 0.00 | 0.10 | 0.10 | 78 | 1005.2 |
| 20260505214831 | 18 | 164 | 0.0 | 0.0 | 0.00 | 0.10 | 0.10 | 80 | 1005.2 |
| 20260505214328 | 18 | 147 | 0.0 | 0.0 | 0.00 | 0.10 | 0.10 | 80 | 1005.1 |
| 20260505213825 | 18 | 146 | 0.0 | 1.6 | 0.00 | 0.10 | 0.10 | 82 | 1005.1 |
| 20260505213323 | 18 | 151 | 0.0 | 0.0 | 0.00 | 0.10 | 0.10 | 82 | 1005.4 |
| 20260505212818 | 18 | 137 | 0.0 | 0.0 | 0.00 | 0.10 | 0.10 | 83 | 1005.4 |
| 20260505212316 | 17 | 137 | 0.0 | 0.0 | 0.00 | 0.10 | 0.10 | 83 | 1005.4 |
| 20260505211812 | 17 | 134 | 1.6 | 1.6 | 0.00 | 0.10 | 0.10 | 83 | 1005.7 |
| 20260505211310 | 17 | 152 | 0.0 | 0.0 | 0.00 | 0.10 | 0.10 | 84 | 1005.5 |
| 20260505210806 | 17 | 163 | 1.6 | 1.6 | 0.00 | 0.10 | 0.10 | 84 | 1005.7 |
| 20260505210303 | 17 | 156 | 0.0 | 0.0 | 0.00 | 0.10 | 0.10 | 84 | 1005.8 |
| 20260505205800 | 17 | 153 | 0.0 | 0.0 | 0.00 | 0.10 | 0.10 | 84 | 1006.2 |
| 20260505205258 | 17 | 152 | 0.0 | 0.0 | 0.00 | 0.10 | 0.10 | 83 | 1006.4 |
| 20260505204754 | 18 | 156 | 0.0 | 0.0 | 0.00 | 0.10 | 0.10 | 82 | 1006.2 |
| 20260505204252 | 18 | 130 | 0.0 | 1.6 | 0.00 | 0.10 | 0.10 | 81 | 1006.4 |
| 20260505203749 | 18 | 155 | 0.0 | 0.0 | 0.00 | 0.10 | 0.10 | 80 | 1006.1 |
| 20260505203246 | 18 | 163 | 0.0 | 0.0 | 0.00 | 0.10 | 0.10 | 80 | 1005.8 |
| 20260505202742 | 18 | 160 | 0.0 | 0.0 | 0.00 | 0.10 | 0.10 | 80 | 1005.4 |
| 20260505202238 | 18 | 143 | 0.0 | 1.6 | 0.00 | 0.10 | 0.10 | 79 | 1005.1 |
| 20260505201735 | 18 | 160 | 0.0 | 0.0 | 0.00 | 0.10 | 0.10 | 81 | 1005.1 |
| 20260505201233 | 18 | 159 | 0.0 | 0.0 | 0.00 | 0.10 | 0.10 | 80 | 1005.3 |
| 20260505200731 | 18 | 172 | 3.2 | 3.2 | 0.00 | 0.10 | 0.10 | 81 | 1005.3 |
| 20260505200228 | 18 | 153 | 0.0 | 0.0 | 0.00 | 0.10 | 0.10 | 82 | 1005.2 |
| 20260505195723 | 18 | 172 | 0.0 | 0.0 | 0.00 | 0.10 | 0.10 | 84 | 1005.3 |
| 20260505195221 | 17 | 160 | 0.0 | 0.0 | 0.00 | 0.10 | 0.10 | 88 | 1005.5 |
| 20260505194718 | 16 | 164 | 0.0 | 0.0 | 0.00 | 0.10 | 0.10 | 88 | 1005.4 |
| 20260505194214 | 16 | 192 | 1.6 | 1.6 | 0.00 | 0.10 | 0.10 | 88 | 1005.3 |
| 20260505193710 | 16 | 171 | 3.2 | 3.2 | 0.13 | 0.10 | 0.10 | 87 | 1005.0 |
| 20260505193207 | 16 | 189 | 1.6 | 3.2 | 0.43 | 0.10 | 0.10 | 87 | 1005.1 |